Sterling, CO

2:43 AM MST on February 27, 2017 (GMT -0700)
Sterling Municipal

Weather History for KSTK - April, 2014

Change the Weather History Date:

Wednesday, April 16, 2014

  Actual Average Record
Temperature  
Mean Temperature 50 °F -  
Max Temperature 59 °F 63 °F 59 °F (2014)
Min Temperature 41 °F 33 °F 28 °F (2013)
Degree Days  
Heating Degree Days 15    
Moisture  
Dew Point 32 °F    
Average Humidity 54    
Maximum Humidity 81    
Minimum Humidity 29    
Precipitation  
Precipitation 0.00 in - - ()
Sea Level Pressure  
Sea Level Pressure 29.88 in    
Wind  
Wind Speed 18 mph (North)    
Max Wind Speed 39 mph    
Max Gust Speed 52 mph    
Visibility 10 miles    
Events      
Averages and records for this station are not official NWS values.
T = Trace of Precipitation, MM = Missing Value Source: NWS Daily Summary

Daily Weather History Graph

Daily Weather History Graph

Search for Another Location

Airport or City:

Trip Planner

Search our weather history database for the weather conditions in past years. The results will help you decide how hot, cold, wet, or windy it might be!

Date:

Astronomy

Apr. 16, 2014 Rise Set
Actual Time 6:12 AM MDT 7:33 PM MDT
Civil Twilight 5:44 AM MDT 8:01 PM MDT
Nautical Twilight 5:10 AM MDT 8:36 PM MDT
Astronomical Twilight 4:34 AM MDT 9:12 PM MDT
Moon 9:20 PM MDT (4/16) 7:01 AM MDT (4/16)
Length of Visible Light 14h 17m
Length of Day
13h 20m
Full, 98% of the Moon is Illuminated
Apr 16
Full
Apr 22
Last Quarter
Apr 29
New
May 6
First Quarter
May 14
Full

Hourly Weather History & Observations

Time (MDT) Temp. Windchill Dew Point Humidity Pressure Visibility Wind Dir Wind Speed Gust Speed Precip Events Conditions
12:10 AM 44.6 °F 39.7 °F 35.6 °F 71% 29.62 in 10.0 mi WSW 9.2 mph - N/A   Clear
12:30 AM 44.6 °F 40.7 °F 37.4 °F 76% 29.62 in 10.0 mi NNW 6.9 mph - N/A   Clear
12:50 AM 42.8 °F 38.0 °F 37.4 °F 81% 29.63 in 10.0 mi South 8.1 mph - N/A   Clear
1:10 AM 46.4 °F 42.9 °F 35.6 °F 66% 29.64 in 10.0 mi West 6.9 mph - N/A   Clear
1:30 AM 51.8 °F - 33.8 °F 50% 29.65 in 10.0 mi NNW 19.6 mph 24.2 mph N/A   Clear
1:50 AM 51.8 °F - 35.6 °F 54% 29.66 in 10.0 mi NNW 20.7 mph 26.5 mph N/A   Clear
2:10 AM 50.0 °F - 35.6 °F 58% 29.65 in 10.0 mi NW 18.4 mph 28.8 mph N/A   Clear
2:30 AM 50.0 °F - 33.8 °F 54% 29.64 in 10.0 mi NW 20.7 mph 29.9 mph N/A   Clear
2:50 AM 51.8 °F - 33.8 °F 50% 29.64 in 10.0 mi NW 23.0 mph 34.5 mph N/A   Clear
3:10 AM 51.8 °F - 32.0 °F 47% 29.64 in 10.0 mi NW 29.9 mph 36.8 mph N/A   Clear
3:30 AM 51.8 °F - 32.0 °F 47% 29.66 in 10.0 mi NW 31.1 mph 39.1 mph N/A   Mostly Cloudy
3:50 AM 51.8 °F - 32.0 °F 47% 29.67 in 10.0 mi NNW 39.1 mph 50.6 mph N/A   Mostly Cloudy
4:10 AM 46.4 °F 36.5 °F 33.8 °F 62% 29.68 in 10.0 mi NNW 34.5 mph 51.8 mph N/A   Scattered Clouds
4:30 AM 44.6 °F 34.9 °F 33.8 °F 66% 29.71 in 10.0 mi NNW 28.8 mph 46.0 mph N/A   Clear
4:50 AM 44.6 °F 35.1 °F 35.6 °F 71% 29.72 in 10.0 mi NNW 27.6 mph 35.7 mph N/A   Clear
5:10 AM 42.8 °F 32.5 °F 33.8 °F 70% 29.72 in 10.0 mi NNW 28.8 mph 36.8 mph N/A   Clear
5:30 AM 42.8 °F 33.1 °F 33.8 °F 70% 29.73 in 10.0 mi NNW 25.3 mph 35.7 mph N/A   Clear
5:50 AM 42.8 °F 33.5 °F 33.8 °F 70% 29.75 in 10.0 mi NNW 23.0 mph 33.4 mph N/A   Clear
6:10 AM 41.0 °F 31.1 °F 33.8 °F 76% 29.77 in 10.0 mi NNW 23.0 mph 29.9 mph N/A   Clear
6:30 AM 41.0 °F 31.6 °F 33.8 °F 76% 29.78 in 10.0 mi NNW 20.7 mph - N/A   Clear
6:50 AM 42.8 °F 34.8 °F 33.8 °F 70% 29.80 in 10.0 mi NW 17.3 mph 23.0 mph N/A   Clear
7:10 AM 42.8 °F 34.0 °F 33.8 °F 70% 29.81 in 10.0 mi NNW 20.7 mph 25.3 mph N/A   Clear
7:30 AM 44.6 °F 36.1 °F 33.8 °F 66% 29.81 in 10.0 mi NNW 21.9 mph 27.6 mph N/A   Clear
7:50 AM 46.4 °F 37.7 °F 33.8 °F 62% 29.82 in 10.0 mi NNW 26.5 mph 33.4 mph N/A   Clear
8:10 AM 46.4 °F 37.7 °F 33.8 °F 62% 29.83 in 10.0 mi North 26.5 mph 33.4 mph N/A   Clear
8:30 AM 48.2 °F - 33.8 °F 58% 29.84 in 10.0 mi NNW 33.4 mph 39.1 mph N/A   Clear
8:50 AM 50.0 °F - 33.8 °F 54% 29.84 in 10.0 mi NNW 33.4 mph 38.0 mph N/A   Clear
9:10 AM 50.0 °F - 32.0 °F 50% 29.86 in 10.0 mi NNW 28.8 mph 40.3 mph N/A   Clear
9:30 AM 51.8 °F - 32.0 °F 47% 29.86 in 10.0 mi NNW 32.2 mph 39.1 mph N/A   Clear
9:50 AM 53.6 °F - 32.0 °F 44% 29.86 in 10.0 mi NNW 28.8 mph 36.8 mph N/A   Clear
10:10 AM 53.6 °F - 32.0 °F 44% 29.88 in 10.0 mi NNW 32.2 mph 39.1 mph N/A   Clear
10:30 AM 53.6 °F - 30.2 °F 41% 29.89 in 10.0 mi North 28.8 mph 36.8 mph N/A   Scattered Clouds
10:50 AM 51.8 °F - 32.0 °F 47% 29.90 in 10.0 mi North 25.3 mph 34.5 mph N/A   Scattered Clouds
11:10 AM 53.6 °F - 32.0 °F 44% 29.91 in 10.0 mi North 24.2 mph 35.7 mph N/A   Scattered Clouds
11:30 AM 53.6 °F - 32.0 °F 44% 29.92 in 10.0 mi North 24.2 mph 40.3 mph N/A   Mostly Cloudy
11:50 AM 55.4 °F - 30.2 °F 38% 29.92 in 10.0 mi NNW 25.3 mph 35.7 mph N/A   Scattered Clouds
12:10 PM 55.4 °F - 30.2 °F 38% 29.92 in 10.0 mi NNW 27.6 mph 33.4 mph N/A   Scattered Clouds
12:30 PM 55.4 °F - 30.2 °F 38% 29.92 in 10.0 mi North 25.3 mph 32.2 mph N/A   Mostly Cloudy
12:50 PM 55.4 °F - 30.2 °F 38% 29.92 in 10.0 mi NNW 21.9 mph 38.0 mph N/A   Overcast
1:10 PM 55.4 °F - 30.2 °F 38% 29.92 in 10.0 mi North 19.6 mph 29.9 mph N/A   Mostly Cloudy
1:30 PM 57.2 °F - 30.2 °F 36% 29.93 in 10.0 mi North 24.2 mph 31.1 mph N/A   Overcast
1:50 PM 55.4 °F - 28.4 °F 36% 29.93 in 10.0 mi North 27.6 mph 34.5 mph N/A   Mostly Cloudy
2:10 PM 59.0 °F - 28.4 °F 31% 29.93 in 10.0 mi NNW 19.6 mph 31.1 mph N/A   Scattered Clouds
2:30 PM 59.0 °F - 28.4 °F 31% 29.93 in 10.0 mi North 21.9 mph 28.8 mph N/A   Scattered Clouds
2:50 PM 57.2 °F - 28.4 °F 33% 29.92 in 10.0 mi North 20.7 mph 27.6 mph N/A   Clear
3:10 PM 57.2 °F - 26.6 °F 31% 29.92 in 10.0 mi North 17.3 mph 32.2 mph N/A   Scattered Clouds
3:30 PM 57.2 °F - 26.6 °F 31% 29.91 in 10.0 mi North 17.3 mph 31.1 mph N/A   Scattered Clouds
3:50 PM 59.0 °F - 26.6 °F 29% 29.92 in 10.0 mi North 21.9 mph 32.2 mph N/A   Clear
4:10 PM 59.0 °F - 28.4 °F 31% 29.93 in 10.0 mi North 18.4 mph 25.3 mph N/A   Clear
4:30 PM 55.4 °F - 28.4 °F 36% 29.93 in 10.0 mi North 16.1 mph 25.3 mph N/A   Clear
4:50 PM 57.2 °F - 28.4 °F 33% 29.94 in 10.0 mi NNE 17.3 mph 25.3 mph N/A   Scattered Clouds
5:10 PM 55.4 °F - 28.4 °F 36% 29.94 in 10.0 mi NE 16.1 mph 21.9 mph N/A   Scattered Clouds
5:30 PM 53.6 °F - 30.2 °F 41% 29.95 in 10.0 mi NE 11.5 mph 18.4 mph N/A   Clear
5:50 PM 53.6 °F - 30.2 °F 41% 29.95 in 10.0 mi NE 16.1 mph 25.3 mph N/A   Scattered Clouds
6:10 PM 53.6 °F - 32.0 °F 44% 29.96 in 10.0 mi NE 11.5 mph 21.9 mph N/A   Clear
6:30 PM 51.8 °F - 32.0 °F 47% 29.98 in 10.0 mi NE 15.0 mph 25.3 mph N/A   Clear
6:50 PM 50.0 °F - 32.0 °F 50% 29.99 in 10.0 mi ENE 10.4 mph - N/A   Clear
7:10 PM 50.0 °F - 32.0 °F 50% 30.00 in 10.0 mi ENE 8.1 mph - N/A   Clear
7:30 PM 48.2 °F - 32.0 °F 54% 30.02 in 10.0 mi ENE 4.6 mph - N/A   Scattered Clouds
7:50 PM 48.2 °F - 32.0 °F 54% 30.03 in 10.0 mi East 6.9 mph - N/A   Overcast
8:10 PM 46.4 °F 42.9 °F 32.0 °F 57% 30.05 in 10.0 mi East 6.9 mph - N/A   Overcast
8:30 PM 44.6 °F 40.2 °F 32.0 °F 61% 30.06 in 10.0 mi East 8.1 mph - N/A   Scattered Clouds
8:50 PM 44.6 °F 41.4 °F 32.0 °F 61% 30.08 in 10.0 mi ESE 5.8 mph - N/A   Clear
9:10 PM 42.8 °F 38.6 °F 32.0 °F 66% 30.08 in 10.0 mi ESE 6.9 mph - N/A   Clear
9:30 PM 42.8 °F 38.6 °F 33.8 °F 70% 30.10 in 10.0 mi East 6.9 mph - N/A   Clear
9:50 PM 41.0 °F 36.4 °F 32.0 °F 70% 30.11 in 10.0 mi East 6.9 mph - N/A   Clear
10:10 PM 41.0 °F 37.1 °F 33.8 °F 76% 30.11 in 10.0 mi ESE 5.8 mph - N/A   Mostly Cloudy
10:30 PM 41.0 °F 37.1 °F 33.8 °F 76% 30.12 in 10.0 mi East 5.8 mph - N/A   Overcast
10:50 PM 41.0 °F 38.0 °F 33.8 °F 76% 30.12 in 10.0 mi East 4.6 mph - N/A   Overcast
11:10 PM 41.0 °F 37.1 °F 33.8 °F 76% 30.12 in 10.0 mi East 5.8 mph - N/A   Overcast
11:30 PM 41.0 °F 39.0 °F 33.8 °F 76% 30.13 in 10.0 mi East 3.5 mph - N/A   Overcast
11:50 PM 41.0 °F 37.1 °F 33.8 °F 76% 30.13 in 10.0 mi East 5.8 mph - N/A   Overcast